Location: Unspecified
(0.0000°N, 0.0000°E)
Time: 21:46:11
(UTC+00:00)

STARLINK-1258 - Visible Passes

Search period start: 12 January 2025 00:00
Search period end: 22 January 2025 00:00
Orbit: 546 x 548 km, 53.1° (Epoch: 12 January)

Date Brightness Start Highest point End Pass type
(mag) Time Alt. Az. Time Alt. Az. Time Alt. Az.
13 Jan 3.8 19:27:06 10° NNW 19:30:49 46° NE 19:30:49 46° NE visible
14 Jan 3.4 19:20:37 10° NNW 19:24:43 77° ENE 19:28:50 10° SE visible
15 Jan 4.0 19:14:19 10° NW 19:18:23 66° WSW 19:22:29 10° SSE visible
16 Jan 5.1 19:08:13 10° NW 19:12:05 40° SW 19:15:58 10° SSE visible
17 Jan 7.0 05:27:49 10° SSE 05:29:40 13° SE 05:31:30 10° E visible
17 Jan 6.1 19:02:19 10° WNW 19:05:47 26° SW 19:09:15 10° S visible
18 Jan 6.7 05:20:23 10° S 05:23:24 19° SE 05:26:23 10° ENE visible
18 Jan 6.7 18:56:47 10° W 18:59:30 17° SW 19:02:14 10° SSW visible
19 Jan 5.8 05:13:29 10° S 05:17:06 29° SE 05:20:43 10° ENE visible
19 Jan 7.3 18:52:04 10° WSW 18:53:15 11° SW 18:54:24 10° SW visible
20 Jan 4.7 05:06:51 10° SSW 05:10:49 46° SE 05:14:47 10° NE visible
21 Jan 3.7 05:00:25 10° SSW 05:04:32 77° SE 05:08:39 10° NE visible
